This is the latest recevied weather packets stored in our database for station/object WE0DX-1. If no packets are shown the sender has not sent any weather packets the latest 10 day(s).
| Time | Temp. | Humidity | Pressure | Rain* | Wind** | Luminosity | Snow |
|---|---|---|---|---|---|---|---|
| 1777764512 | 17.78° C | 30% | 1017.8 hPa | 0 mm | - | 26 W/m² | - |
| 1777764208 | 17.22° C | 31% | 1018.1 hPa | 0 mm | - | 29 W/m² | - |
| 1777763904 | 17.78° C | 31% | 1018 hPa | 0 mm | - | 113 W/m² | - |
| 1777761482 | 17.22° C | 29% | 1018 hPa | 0 mm | - | 34 W/m² | - |
| 1777761180 | 17.78° C | 29% | 1018.1 hPa | 0 mm | - | 34 W/m² | - |
| 1777760575 | 17.22° C | 32% | 1018.4 hPa | 0 mm | - | 35 W/m² | - |
| 1777760270 | 17.22° C | 30% | 1018.4 hPa | 0 mm | - | 37 W/m² | - |
| 1777759967 | 17.22° C | 30% | 1018.3 hPa | 0 mm | - | 38 W/m² | - |
| 1777759664 | 17.78° C | 29% | 1018.4 hPa | 0 mm | - | 131 W/m² | - |
| 1777758754 | 16.67° C | 32% | 1018.4 hPa | 0 mm | - | 136 W/m² | - |
| 1777758451 | 16.67° C | 32% | 1018.4 hPa | 0 mm | - | 101 W/m² | - |
| 1777757845 | 16.67° C | 32% | 1018.5 hPa | 0 mm | - | 56 W/m² | - |
| 1777756939 | 16.67° C | 32% | 1018.8 hPa | 0 mm | - | 240 W/m² | - |
| 1777755726 | 17.22° C | 30% | 1018.9 hPa | 0 mm | - | 369 W/m² | - |
| 1777755423 | 16.67° C | 30% | 1018.8 hPa | 0 mm | - | 565 W/m² | - |
| 1777754210 | 16.67° C | 29% | 1019.2 hPa | 0 mm | - | 597 W/m² | - |
| 1777753602 | 16.67° C | 31% | 1019.2 hPa | 0 mm | - | 615 W/m² | - |
| 1777753301 | 16.67° C | 32% | 1019.4 hPa | 0 mm | - | 613 W/m² | - |
| 1777752997 | 16.67° C | 32% | 1019.4 hPa | 0 mm | - | 607 W/m² | - |
| 1777752694 | 16.67° C | 31% | 1019.4 hPa | 0 mm | - | 630 W/m² | - |
| 1777752389 | 17.22° C | 32% | 1019.5 hPa | 0 mm | - | 613 W/m² | - |
| 1777752087 | 17.22° C | 32% | 1019.5 hPa | 0 mm | - | 619 W/m² | - |
| 1777751178 | 16.67° C | 32% | 1019.5 hPa | 0 mm | - | 626 W/m² | - |
| 1777750571 | 16.11° C | 33% | 1019.9 hPa | 0 mm | - | 626 W/m² | - |
| 1777750268 | 16.67° C | 34% | 1019.5 hPa | 0 mm | - | 595 W/m² | - |
* Rain latest hour (hover to see other rain measurements)
** Current wind speed in m/s (hover to see current wind gust speed)